Helicity
121 124 126 124 121 110 108 101 79 66 44 14 -8 -19 -14 -0 2 -4 26 34 59 62
135 153 151 145 138 129 114 98 86 67 51 38 21 1 1 14 16 19 25 42 54 73
149 159 168 169 153 128 107 95 84 81 71 60 40 25 15 21 22 23 43 40 56 83
173 183 183 168 145 123 115 104 105 94 80 69 60 45 41 30 14 31 46 53 59 68
185 194 188 169 149 134 128 121 113 104 94 86 77 68 56 51 45 43 52 46 58 69
195 199 186 173 163 154 147 144 132 110 104 93 84 79 72 55 52 55 53 64 54 65
215 207 201 191 187 175 160 145 132 120 108 95 88 78 69 57 67 75 67 68 65 72
248 223 208 205 191 170 153 138 131 117 110 103 96 83 85 80 81 76 76 75 78 67
268 247 220 205 192 171 155 142 128 120 116 109 110 70 73 87 106 102 88 80 69 73
274 249 224 206 192 171 151 134 128 123 125 118 120 79 85 92 127 119 119 92 72 58
255 245 231 205 182 168 152 144 133 128 125 123 128 80 96 106 140 147 119 84 62 50
229 215 200 183 168 156 152 141 134 132 125 118 115 86 89 128 150 131 95 70 57 45
179 162 164 145 145 115 130 129 115 112 111 92 117 95 91 103 126 100 84 59 50 14
140 145 130 131 144 142 128 125 127 127 124 121 103 82 42 64 99 101 78 63 30 35
Wind_Speed
52 54 56 58 61 63 66 69 71 74 75 76 77 77 78 78 78 77 78 79 78 78
52 55 57 58 59 61 64 66 70 73 76 78 79 79 78 78 80 78 78 78 77 78
53 54 55 57 60 62 64 67 71 75 77 80 79 79 79 80 80 81 80 79 80 80
55 54 55 59 61 62 65 68 73 76 79 81 82 81 83 83 82 82 83 81 81 80
55 56 59 62 63 64 68 70 73 76 78 80 81 81 83 85 83 84 85 84 82 83
56 58 61 64 66 67 69 72 74 75 78 80 81 82 82 82 83 84 82 82 83 85
59 61 64 67 69 70 71 73 74 75 77 79 81 82 83 83 85 84 82 81 81 83
62 63 67 70 71 71 72 74 76 79 80 81 82 82 83 85 86 85 84 82 82 83
65 69 71 72 74 75 77 78 80 82 85 87 84 86 89 89 88 88 89 91 89 89
70 73 73 73 76 79 82 82 87 88 88 91 89 91 91 93 93 93 92 92 92 94
71 74 75 78 81 84 86 90 92 93 93 95 94 95 97 99 95 95 93 88 90 93
73 77 80 84 87 89 92 94 95 95 97 98 102 99 100 102 98 95 93 89 86 90
75 80 87 88 92 90 91 98 96 101 97 99 104 103 102 98 92 94 93 91 91 94
80 84 85 90 91 94 96 97 99 102 101 99 96 98 96 93 89 89 93 95 96 95
Wind_Direction
318 320 323 325 327 328 330 331 333 334 335 336 335 334 333 332 330 329 326 323 321 318
314 317 319 322 325 326 329 330 332 332 333 334 335 334 334 332 330 329 327 324 321 318
311 314 317 320 321 323 324 327 328 329 331 332 333 333 333 331 331 328 326 323 320 318
308 312 314 314 316 319 321 324 325 327 327 328 329 330 329 329 329 328 326 324 320 317
306 308 310 311 313 316 317 320 323 324 325 326 327 328 327 327 327 326 325 324 321 316
304 305 307 309 311 314 316 318 321 322 323 324 325 325 325 325 324 324 323 322 319 316
302 304 306 308 310 312 314 316 317 319 320 321 322 323 323 323 322 321 320 319 317 315
302 304 306 307 309 311 312 312 314 315 316 317 318 320 320 319 318 317 316 316 315 314
303 304 305 306 307 308 309 310 311 312 312 313 315 316 316 316 315 314 313 312 312 310
304 304 305 306 306 307 307 308 308 309 310 310 311 312 313 313 312 311 310 309 308 306
305 305 306 306 306 306 307 307 307 307 307 307 308 309 310 310 309 308 307 306 305 303
308 307 307 306 306 306 306 306 305 306 306 305 305 307 307 307 306 305 304 304 303 302
310 309 307 307 307 307 307 305 306 304 305 304 304 305 305 305 304 303 303 301 300 298
312 310 310 308 308 308 307 306 306 305 305 304 304 304 304 303 302 301 301 299 297 296